Darstellungsparameter: Aktuell verwendete Einstellungen:
Skalierung der Graphiken ... ?
xyx+y,   Skalierungsfaktor:      Skalierung: Modus: x, Faktor: 1
Darstellungszeitraum ... ?
Vom - - bis: - -   Zeitraum: 17.05.2022 - 18.05.2022
Min/Max/Avg-Anzeige ... ?
Zeige MMA aktuell
Zeige MMA Monat
Zeige MMA alles
Zeige --A aktuell
Zeige --A Monat
Zeige --A alles
Keine MMA-Anzeige
MMA:
Average (ber die Originaldaten)
MMA-Basis: 17.05.2022 - 18.05.2022
Quicknavigation für Darstellung... ?
Tage:      1T, 2T, 3T, 5T -1T -2T -3T -5T +1T +2T +3T +5T
Wochen: 1W, 2W, 3W -1W -2W -3W +1W +2W +3W
Monate: 1M, 3M, 6M -1M -3M -6M +1M +3M +6M
Jahre:    1J, 3J, 5J, 10J -1J -3J -5J -10J +1J +3J +5J +10J
Nutze für die Darstellung ... ?
Originaldaten oder Mittelwerte auf ...
Stundenbasis Tagesbasis Wochenbasis
Monatsbasis Jahresbasis      Datenbasis: Original-Daten
Darstellen als:
Statistik (Auto) Statistik J:M      Darstellung:
Zur Graphik,    zurück zur Übersicht aller Sensoren.
 
Tabellarische Datenbersicht: ?
 
Sensor: Nr:Datum:Temp:Abs-Feuchte:Windchill:Wind:
Aussen-T/F 1 17-05-2022 00:00:00 14.1 C 11.29 g/m*3 14.1 C 0 km/h
2 17-05-2022 00:05:00 14 C 11.22 g/m*3 14 C 0 km/h
3 17-05-2022 00:10:00 13.9 C 11.15 g/m*3 13.9 C 3.2 km/h
4 17-05-2022 00:15:00 13.9 C 11.27 g/m*3 13.9 C 3.2 km/h
5 17-05-2022 00:20:00 14 C 11.34 g/m*3 14 C 1.6 km/h
6 17-05-2022 00:25:00 14.1 C 11.41 g/m*3 14.1 C 0 km/h
7 17-05-2022 00:30:00 14.1 C 11.41 g/m*3 14.1 C 0 km/h
8 17-05-2022 00:35:00 14 C 11.34 g/m*3 14 C 0 km/h
9 17-05-2022 00:40:00 13.9 C 11.27 g/m*3 13.9 C 0 km/h
10 17-05-2022 00:45:00 13.8 C 11.2 g/m*3 13.8 C 0 km/h
11 17-05-2022 00:50:00 13.8 C 11.2 g/m*3 13.8 C 0 km/h
12 17-05-2022 00:55:00 13.7 C 11.13 g/m*3 13.7 C 0 km/h
13 17-05-2022 01:00:00 13.6 C 11.06 g/m*3 13.6 C 0 km/h
14 17-05-2022 01:05:00 13.6 C 11.06 g/m*3 13.6 C 0 km/h
15 17-05-2022 01:10:00 13.4 C 10.93 g/m*3 13.4 C 0 km/h
16 17-05-2022 01:15:00 13.4 C 10.93 g/m*3 13.4 C 0 km/h
17 17-05-2022 01:20:00 13.3 C 10.86 g/m*3 13.3 C 0 km/h
18 17-05-2022 01:25:00 13.2 C 10.79 g/m*3 13.2 C 0 km/h
19 17-05-2022 01:30:00 13.2 C 10.79 g/m*3 13.2 C 1.6 km/h
20 17-05-2022 01:35:00 13.1 C 10.73 g/m*3 13.1 C 3.2 km/h
21 17-05-2022 01:40:00 13.1 C 10.84 g/m*3 13.1 C 0 km/h
22 17-05-2022 01:45:00 13.2 C 10.91 g/m*3 13.2 C 0 km/h
23 17-05-2022 01:50:00 13.3 C 10.98 g/m*3 13.3 C 3.2 km/h
24 17-05-2022 01:55:00 13.4 C 11.04 g/m*3 13.4 C 3.2 km/h
25 17-05-2022 02:00:00 13.6 C 11.18 g/m*3 13.6 C 0 km/h
Sensor: Nr:Datum:Temp:Abs-Feuchte:Windchill:Wind:
Aussen-T/F 26 17-05-2022 02:05:00 13.6 C 11.18 g/m*3 13.6 C 0 km/h
27 17-05-2022 02:10:00 13.5 C 11.11 g/m*3 13.5 C 1.6 km/h
28 17-05-2022 02:15:00 13.4 C 11.04 g/m*3 13.4 C 3.2 km/h
29 17-05-2022 02:20:00 13.5 C 11.11 g/m*3 13.5 C 0 km/h
30 17-05-2022 02:25:00 13.6 C 11.3 g/m*3 13.6 C 3.2 km/h
31 17-05-2022 02:30:00 13.7 C 11.37 g/m*3 13.7 C 0 km/h
32 17-05-2022 02:35:00 13.7 C 11.25 g/m*3 13.7 C 0 km/h
33 17-05-2022 02:40:00 13.7 C 11.25 g/m*3 13.7 C 0 km/h
34 17-05-2022 02:45:00 13.7 C 11.37 g/m*3 13.7 C 0 km/h
35 17-05-2022 02:50:00 13.7 C 11.37 g/m*3 13.7 C 0 km/h
36 17-05-2022 02:55:00 13.8 C 11.44 g/m*3 13.8 C 0 km/h
37 17-05-2022 03:00:00 13.8 C 11.44 g/m*3 13.8 C 0 km/h
38 17-05-2022 03:05:00 13.8 C 11.44 g/m*3 13.8 C 0 km/h
39 17-05-2022 03:10:00 13.8 C 11.44 g/m*3 13.8 C 0 km/h
40 17-05-2022 03:15:00 13.8 C 11.44 g/m*3 13.8 C 1.6 km/h
41 17-05-2022 03:20:00 13.8 C 11.44 g/m*3 13.8 C 1.6 km/h
42 17-05-2022 03:25:00 13.8 C 11.44 g/m*3 13.8 C 0 km/h
43 17-05-2022 03:30:00 13.8 C 11.44 g/m*3 13.8 C 0 km/h
44 17-05-2022 03:35:00 13.8 C 11.44 g/m*3 13.8 C 3.2 km/h
45 17-05-2022 03:40:00 13.7 C 11.37 g/m*3 13.7 C 1.6 km/h
46 17-05-2022 03:45:00 13.7 C 11.37 g/m*3 13.7 C 0 km/h
47 17-05-2022 03:50:00 13.7 C 11.37 g/m*3 13.7 C 3.2 km/h
48 17-05-2022 03:55:00 13.6 C 11.3 g/m*3 13.6 C 3.2 km/h
49 17-05-2022 04:00:00 13.6 C 11.3 g/m*3 13.6 C 6.4 km/h
50 17-05-2022 04:05:00 13.5 C 11.23 g/m*3 13.5 C 0 km/h
Sensor: Nr:Datum:Temp:Abs-Feuchte:Windchill:Wind:
Aussen-T/F 51 17-05-2022 04:10:00 13.5 C 11.11 g/m*3 13.5 C 1.6 km/h
52 17-05-2022 04:15:00 13.4 C 11.16 g/m*3 13.4 C 0 km/h
53 17-05-2022 04:20:00 13.3 C 11.09 g/m*3 13.3 C 0 km/h
54 17-05-2022 04:25:00 13.2 C 10.91 g/m*3 13.2 C 0 km/h
55 17-05-2022 04:30:00 13.2 C 10.91 g/m*3 13.2 C 0 km/h
56 17-05-2022 04:35:00 13.1 C 10.84 g/m*3 13.1 C 0 km/h
57 17-05-2022 04:40:00 13.1 C 10.95 g/m*3 13.1 C 0 km/h
58 17-05-2022 04:45:00 13.1 C 10.95 g/m*3 13.1 C 0 km/h
59 17-05-2022 04:50:00 13.1 C 10.95 g/m*3 13.1 C 0 km/h
60 17-05-2022 04:55:00 13.1 C 10.95 g/m*3 13.1 C 0 km/h
61 17-05-2022 05:00:00 13.1 C 10.95 g/m*3 13.1 C 4.8 km/h
62 17-05-2022 05:05:00 13.1 C 10.95 g/m*3 13.1 C 1.6 km/h
63 17-05-2022 05:10:00 13.1 C 10.95 g/m*3 13.1 C 3.2 km/h
64 17-05-2022 05:15:00 13 C 10.89 g/m*3 13 C 0 km/h
65 17-05-2022 05:20:00 13 C 10.89 g/m*3 13 C 1.6 km/h
66 17-05-2022 05:25:00 12.9 C 10.82 g/m*3 12.9 C 0 km/h
67 17-05-2022 05:30:00 12.9 C 10.82 g/m*3 12.9 C 0 km/h
68 17-05-2022 05:35:00 12.9 C 10.82 g/m*3 12.9 C 0 km/h
69 17-05-2022 05:40:00 12.8 C 10.75 g/m*3 12.8 C 1.6 km/h
70 17-05-2022 05:45:00 12.8 C 10.75 g/m*3 12.8 C 0 km/h
71 17-05-2022 05:50:00 12.8 C 10.75 g/m*3 12.8 C 0 km/h
72 17-05-2022 05:55:00 12.7 C 10.69 g/m*3 12.7 C 0 km/h
73 17-05-2022 06:00:00 12.7 C 10.69 g/m*3 12.7 C 0 km/h
74 17-05-2022 06:05:00 12.7 C 10.69 g/m*3 12.7 C 0 km/h
75 17-05-2022 06:10:00 12.7 C 10.69 g/m*3 12.7 C 0 km/h
Sensor: Nr:Datum:Temp:Abs-Feuchte:Windchill:Wind:
Aussen-T/F 76 17-05-2022 06:15:00 12.8 C 10.75 g/m*3 12.8 C 0 km/h
77 17-05-2022 06:20:00 12.8 C 10.75 g/m*3 12.8 C 0 km/h
78 17-05-2022 06:25:00 12.8 C 10.75 g/m*3 12.8 C 0 km/h
79 17-05-2022 06:30:00 12.8 C 10.75 g/m*3 12.8 C 0 km/h
80 17-05-2022 06:35:00 12.9 C 10.82 g/m*3 12.9 C 0 km/h
81 17-05-2022 06:40:00 12.9 C 10.82 g/m*3 12.9 C 1.6 km/h
82 17-05-2022 06:45:00 12.9 C 10.82 g/m*3 12.9 C 3.2 km/h
83 17-05-2022 06:50:00 12.9 C 10.82 g/m*3 12.9 C 3.2 km/h
84 17-05-2022 06:55:00 12.8 C 10.75 g/m*3 12.8 C 4.8 km/h
85 17-05-2022 07:00:00 12.8 C 10.75 g/m*3 12.8 C 3.2 km/h
86 17-05-2022 07:05:00 12.8 C 10.75 g/m*3 12.8 C 1.6 km/h
87 17-05-2022 07:10:00 12.9 C 10.82 g/m*3 12.9 C 4.8 km/h
88 17-05-2022 07:15:00 12.9 C 10.82 g/m*3 12.9 C 3.2 km/h
89 17-05-2022 07:20:00 13 C 10.89 g/m*3 13 C 3.2 km/h
90 17-05-2022 07:25:00 13.1 C 10.95 g/m*3 13.1 C 0 km/h
91 17-05-2022 07:30:00 13 C 10.89 g/m*3 13 C 3.2 km/h
92 17-05-2022 07:35:00 13.1 C 10.95 g/m*3 13.1 C 3.2 km/h
93 17-05-2022 07:40:00 13.1 C 10.95 g/m*3 13.1 C 1.6 km/h
94 17-05-2022 07:45:00 13.2 C 11.02 g/m*3 13.2 C 1.6 km/h
95 17-05-2022 07:50:00 13.2 C 11.02 g/m*3 13.2 C 0 km/h
96 17-05-2022 07:55:00 13.2 C 11.02 g/m*3 13.2 C 0 km/h
97 17-05-2022 08:00:00 13.2 C 11.02 g/m*3 13.2 C 0 km/h
98 17-05-2022 08:05:00 13.3 C 11.09 g/m*3 13.3 C 1.6 km/h
99 17-05-2022 08:10:00 13.4 C 11.16 g/m*3 13.4 C 0 km/h
100 17-05-2022 08:15:00 13.5 C 11.23 g/m*3 13.5 C 0 km/h
Sensor: Nr:Datum:Temp:Abs-Feuchte:Windchill:Wind:
Aussen-T/F 101 17-05-2022 08:20:00 13.7 C 11.37 g/m*3 13.7 C 0 km/h
102 17-05-2022 08:25:00 13.8 C 11.56 g/m*3 13.8 C 0 km/h
103 17-05-2022 08:30:00 13.8 C 11.44 g/m*3 13.8 C 0 km/h
104 17-05-2022 08:35:00 13.9 C 11.51 g/m*3 13.9 C 1.6 km/h
105 17-05-2022 08:40:00 13.9 C 11.51 g/m*3 13.9 C 1.6 km/h
106 17-05-2022 08:45:00 13.9 C 11.51 g/m*3 13.9 C 0 km/h
107 17-05-2022 08:50:00 13.9 C 11.51 g/m*3 13.9 C 0 km/h
108 17-05-2022 08:55:00 14 C 11.58 g/m*3 14 C 0 km/h
109 17-05-2022 09:00:00 14.1 C 11.65 g/m*3 14.1 C 0 km/h
110 17-05-2022 09:05:00 14.2 C 11.72 g/m*3 14.2 C 0 km/h
111 17-05-2022 09:10:00 14.2 C 11.72 g/m*3 14.2 C 0 km/h
112 17-05-2022 09:15:00 14.3 C 11.79 g/m*3 14.3 C 0 km/h
113 17-05-2022 09:20:00 14.5 C 11.94 g/m*3 14.5 C 0 km/h
114 17-05-2022 09:25:00 14.7 C 12.09 g/m*3 14.7 C 0 km/h
115 17-05-2022 09:30:00 14.8 C 12.16 g/m*3 14.8 C 0 km/h
116 17-05-2022 09:35:00 15.1 C 12.39 g/m*3 15.1 C 0 km/h
117 17-05-2022 09:40:00 15.3 C 12.54 g/m*3 15.3 C 0 km/h
118 17-05-2022 09:45:00 15.4 C 12.48 g/m*3 15.4 C 0 km/h
119 17-05-2022 09:50:00 15.6 C 12.63 g/m*3 15.6 C 0 km/h
120 17-05-2022 09:55:00 15.8 C 12.79 g/m*3 15.8 C 0 km/h
121 17-05-2022 10:00:00 16.1 C 13.02 g/m*3 16.1 C 0 km/h
122 17-05-2022 10:05:00 16.3 C 13.04 g/m*3 16.3 C 0 km/h
123 17-05-2022 10:10:00 16.4 C 13.12 g/m*3 16.4 C 0 km/h
124 17-05-2022 10:15:00 16.6 C 13.14 g/m*3 16.6 C 0 km/h
125 17-05-2022 10:20:00 16.9 C 13.23 g/m*3 16.9 C 0 km/h
Sensor: Nr:Datum:Temp:Abs-Feuchte:Windchill:Wind:
Aussen-T/F 126 17-05-2022 10:25:00 17.2 C 13.47 g/m*3 17.2 C 0 km/h
127 17-05-2022 10:30:00 17.4 C 13.49 g/m*3 17.4 C 0 km/h
128 17-05-2022 10:35:00 17.7 C 13.43 g/m*3 17.7 C 0 km/h
129 17-05-2022 10:40:00 17.9 C 13.44 g/m*3 17.9 C 0 km/h
130 17-05-2022 10:45:00 18.3 C 13.76 g/m*3 18.3 C 0 km/h
131 17-05-2022 10:50:00 18.6 C 14.01 g/m*3 18.6 C 0 km/h
132 17-05-2022 10:55:00 19 C 14.18 g/m*3 19 C 0 km/h
133 17-05-2022 11:00:00 19.3 C 13.93 g/m*3 19.3 C 0 km/h
134 17-05-2022 11:05:00 19.6 C 14.18 g/m*3 19.6 C 0 km/h
135 17-05-2022 11:10:00 19.8 C 14.01 g/m*3 19.8 C 0 km/h
136 17-05-2022 11:15:00 20 C 14 g/m*3 20 C 0 km/h
137 17-05-2022 11:20:00 20.3 C 13.89 g/m*3 20.3 C 0 km/h
138 17-05-2022 11:25:00 20.4 C 13.8 g/m*3 20.4 C 0 km/h
139 17-05-2022 11:30:00 20.7 C 14.04 g/m*3 20.7 C 0 km/h
140 17-05-2022 11:35:00 20.9 C 14.02 g/m*3 20.9 C 0 km/h
141 17-05-2022 11:40:00 21.2 C 14.08 g/m*3 21.2 C 0 km/h
142 17-05-2022 11:45:00 21.4 C 13.87 g/m*3 21.4 C 0 km/h
143 17-05-2022 11:50:00 21.6 C 14.03 g/m*3 21.6 C 0 km/h
144 17-05-2022 11:55:00 21.7 C 13.93 g/m*3 21.7 C 0 km/h
145 17-05-2022 12:00:00 21.8 C 13.81 g/m*3 21.8 C 0 km/h
146 17-05-2022 12:05:00 21.9 C 13.7 g/m*3 21.9 C 0 km/h
147 17-05-2022 12:10:00 22.1 C 13.86 g/m*3 22.1 C 0 km/h
148 17-05-2022 12:15:00 22.3 C 13.82 g/m*3 22.3 C 0 km/h
149 17-05-2022 12:20:00 22.6 C 13.86 g/m*3 22.6 C 0 km/h
150 17-05-2022 12:25:00 22.9 C 13.69 g/m*3 22.9 C 9.7 km/h
Sensor: Nr:Datum:Temp:Abs-Feuchte:Windchill:Wind:
Aussen-T/F 151 17-05-2022 12:30:00 23.2 C 13.72 g/m*3 23.2 C 6.4 km/h
152 17-05-2022 12:35:00 23.4 C 13.46 g/m*3 23.4 C 4.8 km/h
153 17-05-2022 12:40:00 23.6 C 13.4 g/m*3 23.6 C 1.6 km/h
154 17-05-2022 12:45:00 23.8 C 12.69 g/m*3 23.8 C 8.1 km/h
155 17-05-2022 12:50:00 23.8 C 13.12 g/m*3 23.8 C 6.4 km/h
156 17-05-2022 12:55:00 24.1 C 12.91 g/m*3 24.1 C 6.4 km/h
157 17-05-2022 13:00:00 24.1 C 12.69 g/m*3 24.1 C 4.8 km/h
158 17-05-2022 13:05:00 23.9 C 12.11 g/m*3 23.9 C 8.1 km/h
159 17-05-2022 13:10:00 23.9 C 12.11 g/m*3 23.9 C 3.2 km/h
160 17-05-2022 13:15:00 23.9 C 12.11 g/m*3 23.9 C 6.4 km/h
161 17-05-2022 13:20:00 24.1 C 12.47 g/m*3 24.1 C 6.4 km/h
162 17-05-2022 13:25:00 24.3 C 12.61 g/m*3 24.3 C 6.4 km/h
163 17-05-2022 13:30:00 24.4 C 12.24 g/m*3 24.4 C 6.4 km/h
164 17-05-2022 13:35:00 24.4 C 12.24 g/m*3 24.4 C 6.4 km/h
165 17-05-2022 13:40:00 24.3 C 12.17 g/m*3 24.3 C 6.4 km/h
166 17-05-2022 13:45:00 24.3 C 12.17 g/m*3 24.3 C 6.4 km/h
167 17-05-2022 13:50:00 24.3 C 12.17 g/m*3 24.3 C 6.4 km/h
168 17-05-2022 13:55:00 24.3 C 12.83 g/m*3 24.3 C 9.7 km/h
169 17-05-2022 14:00:00 24.3 C 12.39 g/m*3 24.3 C 4.8 km/h
170 17-05-2022 14:05:00 24.6 C 12.15 g/m*3 24.6 C 6.4 km/h
171 17-05-2022 14:10:00 24.7 C 12.22 g/m*3 24.7 C 8.1 km/h
172 17-05-2022 14:15:00 25.1 C 12.5 g/m*3 25.1 C 3.2 km/h
173 17-05-2022 14:20:00 25.4 C 12.71 g/m*3 25.4 C 3.2 km/h
174 17-05-2022 14:25:00 25.8 C 12.28 g/m*3 25.8 C 8.1 km/h
175 17-05-2022 14:30:00 25.9 C 12.1 g/m*3 25.9 C 9.7 km/h
Sensor: Nr:Datum:Temp:Abs-Feuchte:Windchill:Wind:
Aussen-T/F 176 17-05-2022 14:35:00 26.1 C 12.24 g/m*3 26.1 C 4.8 km/h
177 17-05-2022 14:40:00 26.1 C 12 g/m*3 26.1 C 12.9 km/h
178 17-05-2022 14:45:00 25.9 C 12.35 g/m*3 25.9 C 3.2 km/h
179 17-05-2022 14:50:00 25.8 C 12.04 g/m*3 25.8 C 9.7 km/h
180 17-05-2022 14:55:00 25.5 C 12.78 g/m*3 25.5 C 8.1 km/h
181 17-05-2022 15:00:00 25.6 C 12.14 g/m*3 25.6 C 3.2 km/h
182 17-05-2022 15:05:00 25.7 C 11.97 g/m*3 25.7 C 6.4 km/h
183 17-05-2022 15:10:00 25.8 C 12.28 g/m*3 25.8 C 4.8 km/h
184 17-05-2022 15:15:00 25.8 C 11.8 g/m*3 25.8 C 6.4 km/h
185 17-05-2022 15:20:00 25.7 C 11.49 g/m*3 25.7 C 8.1 km/h
186 17-05-2022 15:25:00 25.7 C 11.73 g/m*3 25.7 C 9.7 km/h
187 17-05-2022 15:30:00 25.8 C 11.8 g/m*3 25.8 C 8.1 km/h
188 17-05-2022 15:35:00 25.7 C 11.49 g/m*3 25.7 C 9.7 km/h
189 17-05-2022 15:40:00 25.8 C 11.8 g/m*3 25.8 C 9.7 km/h
190 17-05-2022 15:45:00 25.8 C 11.56 g/m*3 25.8 C 11.3 km/h
191 17-05-2022 15:50:00 25.9 C 11.86 g/m*3 25.9 C 6.4 km/h
192 17-05-2022 15:55:00 25.9 C 11.62 g/m*3 25.9 C 6.4 km/h
193 17-05-2022 16:00:00 25.9 C 11.38 g/m*3 25.9 C 4.8 km/h
194 17-05-2022 16:05:00 25.9 C 12.1 g/m*3 25.9 C 4.8 km/h
195 17-05-2022 16:10:00 25.8 C 11.32 g/m*3 25.8 C 8.1 km/h
196 17-05-2022 16:15:00 25.6 C 11.43 g/m*3 25.6 C 4.8 km/h
197 17-05-2022 16:20:00 25.6 C 11.43 g/m*3 25.6 C 1.6 km/h
198 17-05-2022 16:25:00 25.8 C 11.8 g/m*3 25.8 C 4.8 km/h
199 17-05-2022 16:30:00 26.4 C 12.2 g/m*3 26.4 C 3.2 km/h
200 17-05-2022 16:35:00 26.9 C 11.52 g/m*3 26.9 C 9.7 km/h
Sensor: Nr:Datum:Temp:Abs-Feuchte:Windchill:Wind:
Aussen-T/F 201 17-05-2022 16:40:00 27.1 C 11.39 g/m*3 27.1 C 8.1 km/h
202 17-05-2022 16:45:00 27.4 C 11.84 g/m*3 27.4 C 6.4 km/h
203 17-05-2022 16:50:00 27.8 C 11.83 g/m*3 27.8 C 9.7 km/h
204 17-05-2022 16:55:00 27.8 C 11.57 g/m*3 27.8 C 8.1 km/h
205 17-05-2022 17:00:00 27.9 C 11.63 g/m*3 27.9 C 9.7 km/h
206 17-05-2022 17:05:00 27.9 C 11.36 g/m*3 27.9 C 11.3 km/h
207 17-05-2022 17:10:00 27.8 C 11.57 g/m*3 27.8 C 6.4 km/h
208 17-05-2022 17:15:00 28.1 C 12.03 g/m*3 28.1 C 8.1 km/h
209 17-05-2022 17:20:00 28.2 C 12.1 g/m*3 28.2 C 9.7 km/h
210 17-05-2022 17:25:00 28.4 C 11.95 g/m*3 28.4 C 12.9 km/h
211 17-05-2022 17:30:00 28.1 C 11.48 g/m*3 28.1 C 9.7 km/h
212 17-05-2022 17:35:00 27.9 C 11.9 g/m*3 27.9 C 6.4 km/h
213 17-05-2022 17:40:00 28.1 C 11.48 g/m*3 28.1 C 8.1 km/h
214 17-05-2022 17:45:00 28.1 C 12.03 g/m*3 28.1 C 6.4 km/h
215 17-05-2022 17:50:00 28.3 C 11.61 g/m*3 28.3 C 8.1 km/h
216 17-05-2022 17:55:00 28.3 C 11.61 g/m*3 28.3 C 6.4 km/h
217 17-05-2022 18:00:00 28.3 C 11.33 g/m*3 28.3 C 9.7 km/h
218 17-05-2022 18:05:00 27.8 C 11.57 g/m*3 27.8 C 11.3 km/h
219 17-05-2022 18:10:00 27.8 C 11.57 g/m*3 27.8 C 11.3 km/h
220 17-05-2022 18:15:00 27.6 C 11.97 g/m*3 27.6 C 12.9 km/h
221 17-05-2022 18:20:00 27.3 C 12.3 g/m*3 27.3 C 11.3 km/h
222 17-05-2022 18:25:00 27.1 C 11.9 g/m*3 27.1 C 9.7 km/h
223 17-05-2022 18:30:00 26.8 C 11.96 g/m*3 26.8 C 11.3 km/h
224 17-05-2022 18:35:00 26.6 C 11.83 g/m*3 26.6 C 12.9 km/h
225 17-05-2022 18:40:00 26.5 C 11.77 g/m*3 26.5 C 8.1 km/h
Sensor: Nr:Datum:Temp:Abs-Feuchte:Windchill:Wind:
Aussen-T/F 226 17-05-2022 18:45:00 26.4 C 11.95 g/m*3 26.4 C 12.9 km/h
227 17-05-2022 18:50:00 26.3 C 12.13 g/m*3 26.3 C 11.3 km/h
228 17-05-2022 18:55:00 26.3 C 11.64 g/m*3 26.3 C 11.3 km/h
229 17-05-2022 19:00:00 26.2 C 11.57 g/m*3 26.2 C 12.9 km/h
230 17-05-2022 19:05:00 26.2 C 12.06 g/m*3 26.2 C 8.1 km/h
231 17-05-2022 19:10:00 26.1 C 12.24 g/m*3 26.1 C 12.9 km/h
232 17-05-2022 19:15:00 25.8 C 12.28 g/m*3 25.8 C 6.4 km/h
233 17-05-2022 19:20:00 25.6 C 12.62 g/m*3 25.6 C 6.4 km/h
234 17-05-2022 19:25:00 25.4 C 12.71 g/m*3 25.4 C 3.2 km/h
235 17-05-2022 19:30:00 25.3 C 13.34 g/m*3 25.3 C 0 km/h
236 17-05-2022 19:35:00 25.2 C 13.74 g/m*3 25.2 C 0 km/h
237 17-05-2022 19:40:00 25 C 13.81 g/m*3 25 C 0 km/h
238 17-05-2022 19:45:00 24.8 C 12.52 g/m*3 24.8 C 4.8 km/h
239 17-05-2022 19:50:00 24.5 C 13.43 g/m*3 24.5 C 0 km/h
240 17-05-2022 19:55:00 24.3 C 13.5 g/m*3 24.3 C 0 km/h
241 17-05-2022 20:00:00 24.1 C 13.78 g/m*3 24.1 C 0 km/h
242 17-05-2022 20:05:00 23.8 C 13.77 g/m*3 23.8 C 0 km/h
243 17-05-2022 20:10:00 23.6 C 13.82 g/m*3 23.6 C 0 km/h
244 17-05-2022 20:15:00 23.3 C 13.8 g/m*3 23.3 C 0 km/h
245 17-05-2022 20:20:00 23.2 C 13.93 g/m*3 23.2 C 0 km/h
246 17-05-2022 20:25:00 22.9 C 13.69 g/m*3 22.9 C 0 km/h
247 17-05-2022 20:30:00 22.7 C 13.54 g/m*3 22.7 C 0 km/h
248 17-05-2022 20:35:00 22.5 C 13.58 g/m*3 22.5 C 0 km/h
249 17-05-2022 20:40:00 22.3 C 13.62 g/m*3 22.3 C 0 km/h
250 17-05-2022 20:45:00 22.1 C 13.47 g/m*3 22.1 C 0 km/h
Sensor: Nr:Datum:Temp:Abs-Feuchte:Windchill:Wind:
Aussen-T/F 251 17-05-2022 20:50:00 21.8 C 13.43 g/m*3 21.8 C 0 km/h
252 17-05-2022 20:55:00 21.6 C 13.28 g/m*3 21.6 C 0 km/h
253 17-05-2022 21:00:00 21.4 C 13.31 g/m*3 21.4 C 0 km/h
254 17-05-2022 21:05:00 21.1 C 13.08 g/m*3 21.1 C 0 km/h
255 17-05-2022 21:10:00 20.9 C 12.93 g/m*3 20.9 C 0 km/h
256 17-05-2022 21:15:00 20.7 C 12.96 g/m*3 20.7 C 0 km/h
257 17-05-2022 21:20:00 20.4 C 12.74 g/m*3 20.4 C 0 km/h
258 17-05-2022 21:25:00 20.1 C 12.69 g/m*3 20.1 C 0 km/h
259 17-05-2022 21:30:00 19.9 C 12.71 g/m*3 19.9 C 0 km/h
260 17-05-2022 21:35:00 19.7 C 12.57 g/m*3 19.7 C 0 km/h
261 17-05-2022 21:40:00 19.4 C 12.51 g/m*3 19.4 C 0 km/h
262 17-05-2022 21:45:00 19.3 C 12.44 g/m*3 19.3 C 0 km/h
263 17-05-2022 21:50:00 19.1 C 12.46 g/m*3 19.1 C 3.2 km/h
264 17-05-2022 21:55:00 18.9 C 12.31 g/m*3 18.9 C 1.6 km/h
265 17-05-2022 22:00:00 18.8 C 12.4 g/m*3 18.8 C 1.6 km/h
266 17-05-2022 22:05:00 18.7 C 12.33 g/m*3 18.7 C 0 km/h
267 17-05-2022 22:10:00 18.5 C 12.18 g/m*3 18.5 C 0 km/h
268 17-05-2022 22:15:00 18.4 C 12.27 g/m*3 18.4 C 0 km/h
269 17-05-2022 22:20:00 18.3 C 12.2 g/m*3 18.3 C 0 km/h
270 17-05-2022 22:25:00 18.1 C 12.21 g/m*3 18.1 C 0 km/h
271 17-05-2022 22:30:00 18 C 12.13 g/m*3 18 C 0 km/h
272 17-05-2022 22:35:00 17.9 C 12.21 g/m*3 17.9 C 0 km/h
273 17-05-2022 22:40:00 17.8 C 12.14 g/m*3 17.8 C 0 km/h
274 17-05-2022 22:45:00 17.8 C 12.29 g/m*3 17.8 C 0 km/h
275 17-05-2022 22:50:00 17.7 C 12.22 g/m*3 17.7 C 0 km/h
Sensor: Nr:Datum:Temp:Abs-Feuchte:Windchill:Wind:
Aussen-T/F 276 17-05-2022 22:55:00 17.7 C 12.22 g/m*3 17.7 C 0 km/h
277 17-05-2022 23:00:00 17.6 C 12.15 g/m*3 17.6 C 0 km/h
278 17-05-2022 23:05:00 17.5 C 12.08 g/m*3 17.5 C 0 km/h
279 17-05-2022 23:10:00 17.4 C 12.15 g/m*3 17.4 C 0 km/h
280 17-05-2022 23:15:00 17.3 C 12.08 g/m*3 17.3 C 0 km/h
281 17-05-2022 23:20:00 17.3 C 12.08 g/m*3 17.3 C 0 km/h
282 17-05-2022 23:25:00 17.3 C 12.08 g/m*3 17.3 C 0 km/h
283 17-05-2022 23:30:00 17.2 C 12.01 g/m*3 17.2 C 0 km/h
284 17-05-2022 23:35:00 17.2 C 12.01 g/m*3 17.2 C 0 km/h
285 17-05-2022 23:40:00 17.1 C 11.94 g/m*3 17.1 C 0 km/h
286 17-05-2022 23:45:00 16.9 C 11.79 g/m*3 16.9 C 0 km/h
287 17-05-2022 23:50:00 16.9 C 11.79 g/m*3 16.9 C 0 km/h
288 17-05-2022 23:55:00 16.8 C 11.72 g/m*3 16.8 C 0 km/h
289 18-05-2022 00:00:00 16.7 C 11.65 g/m*3 16.7 C 0 km/h
290 18-05-2022 00:05:00 16.7 C 11.65 g/m*3 16.7 C 0 km/h
291 18-05-2022 00:10:00 16.6 C 11.58 g/m*3 16.6 C 0 km/h
292 18-05-2022 00:15:00 16.5 C 11.51 g/m*3 16.5 C 0 km/h
293 18-05-2022 00:20:00 16.4 C 11.45 g/m*3 16.4 C 0 km/h
294 18-05-2022 00:25:00 16.3 C 11.52 g/m*3 16.3 C 0 km/h
295 18-05-2022 00:30:00 16.2 C 11.45 g/m*3 16.2 C 0 km/h
296 18-05-2022 00:35:00 16.1 C 11.38 g/m*3 16.1 C 0 km/h
297 18-05-2022 00:40:00 15.9 C 11.38 g/m*3 15.9 C 0 km/h
298 18-05-2022 00:45:00 15.9 C 11.38 g/m*3 15.9 C 0 km/h
299 18-05-2022 00:50:00 15.9 C 11.38 g/m*3 15.9 C 3.2 km/h
300 18-05-2022 00:55:00 15.8 C 11.31 g/m*3 15.8 C 0 km/h
Sensor: Nr:Datum:Temp:Abs-Feuchte:Windchill:Wind:
Aussen-T/F 301 18-05-2022 01:00:00 15.8 C 11.44 g/m*3 15.8 C 0 km/h
302 18-05-2022 01:05:00 15.7 C 11.37 g/m*3 15.7 C 0 km/h
303 18-05-2022 01:10:00 15.7 C 11.37 g/m*3 15.7 C 0 km/h
304 18-05-2022 01:15:00 15.6 C 11.3 g/m*3 15.6 C 0 km/h
305 18-05-2022 01:20:00 15.5 C 11.37 g/m*3 15.5 C 0 km/h
306 18-05-2022 01:25:00 15.4 C 11.3 g/m*3 15.4 C 0 km/h
307 18-05-2022 01:30:00 15.3 C 11.23 g/m*3 15.3 C 0 km/h
308 18-05-2022 01:35:00 15.2 C 11.16 g/m*3 15.2 C 0 km/h
309 18-05-2022 01:40:00 15.2 C 11.29 g/m*3 15.2 C 0 km/h
310 18-05-2022 01:45:00 15.1 C 11.22 g/m*3 15.1 C 0 km/h
311 18-05-2022 01:50:00 15 C 11.16 g/m*3 15 C 0 km/h
312 18-05-2022 01:55:00 14.9 C 11.09 g/m*3 14.9 C 0 km/h
313 18-05-2022 02:00:00 14.9 C 11.09 g/m*3 14.9 C 0 km/h
314 18-05-2022 02:05:00 14.8 C 11.15 g/m*3 14.8 C 0 km/h
315 18-05-2022 02:10:00 14.8 C 11.15 g/m*3 14.8 C 0 km/h
316 18-05-2022 02:15:00 14.7 C 11.08 g/m*3 14.7 C 0 km/h
317 18-05-2022 02:20:00 14.7 C 11.08 g/m*3 14.7 C 0 km/h
318 18-05-2022 02:25:00 14.6 C 11.01 g/m*3 14.6 C 0 km/h
319 18-05-2022 02:30:00 14.6 C 11.01 g/m*3 14.6 C 0 km/h
320 18-05-2022 02:35:00 14.4 C 11 g/m*3 14.4 C 0 km/h
321 18-05-2022 02:40:00 14.4 C 11 g/m*3 14.4 C 0 km/h
322 18-05-2022 02:45:00 14.3 C 10.93 g/m*3 14.3 C 0 km/h
323 18-05-2022 02:50:00 14.3 C 10.93 g/m*3 14.3 C 0 km/h
324 18-05-2022 02:55:00 14.2 C 10.87 g/m*3 14.2 C 0 km/h
325 18-05-2022 03:00:00 14.1 C 10.8 g/m*3 14.1 C 0 km/h
Sensor: Nr:Datum:Temp:Abs-Feuchte:Windchill:Wind:
Aussen-T/F 326 18-05-2022 03:05:00 14.1 C 10.8 g/m*3 14.1 C 0 km/h
327 18-05-2022 03:10:00 14 C 10.86 g/m*3 14 C 0 km/h
328 18-05-2022 03:15:00 13.9 C 10.79 g/m*3 13.9 C 0 km/h
329 18-05-2022 03:20:00 13.8 C 10.72 g/m*3 13.8 C 0 km/h
330 18-05-2022 03:25:00 13.8 C 10.72 g/m*3 13.8 C 0 km/h
331 18-05-2022 03:30:00 13.7 C 10.66 g/m*3 13.7 C 0 km/h
332 18-05-2022 03:35:00 13.7 C 10.66 g/m*3 13.7 C 0 km/h
333 18-05-2022 03:40:00 13.6 C 10.71 g/m*3 13.6 C 0 km/h
334 18-05-2022 03:45:00 13.6 C 10.71 g/m*3 13.6 C 0 km/h
335 18-05-2022 03:50:00 13.6 C 10.71 g/m*3 13.6 C 0 km/h
336 18-05-2022 03:55:00 13.6 C 10.71 g/m*3 13.6 C 0 km/h
337 18-05-2022 04:00:00 13.7 C 10.78 g/m*3 13.7 C 0 km/h
338 18-05-2022 04:05:00 13.7 C 10.89 g/m*3 13.7 C 0 km/h
339 18-05-2022 04:10:00 13.6 C 10.83 g/m*3 13.6 C 0 km/h
340 18-05-2022 04:15:00 13.6 C 10.83 g/m*3 13.6 C 0 km/h
341 18-05-2022 04:20:00 13.5 C 10.76 g/m*3 13.5 C 0 km/h
342 18-05-2022 04:25:00 13.4 C 10.69 g/m*3 13.4 C 0 km/h
343 18-05-2022 04:30:00 13.4 C 10.58 g/m*3 13.4 C 0 km/h
344 18-05-2022 04:35:00 13.3 C 10.63 g/m*3 13.3 C 0 km/h
345 18-05-2022 04:40:00 13.3 C 10.63 g/m*3 13.3 C 0 km/h
346 18-05-2022 04:45:00 13.3 C 10.63 g/m*3 13.3 C 0 km/h
347 18-05-2022 04:50:00 13.3 C 10.63 g/m*3 13.3 C 0 km/h
348 18-05-2022 04:55:00 13.2 C 10.56 g/m*3 13.2 C 0 km/h
349 18-05-2022 05:00:00 13.2 C 10.56 g/m*3 13.2 C 0 km/h
350 18-05-2022 05:05:00 13.1 C 10.5 g/m*3 13.1 C 0 km/h
Sensor: Nr:Datum:Temp:Abs-Feuchte:Windchill:Wind:
Aussen-T/F 351 18-05-2022 05:10:00 13.1 C 10.5 g/m*3 13.1 C 0 km/h
352 18-05-2022 05:15:00 13.1 C 10.5 g/m*3 13.1 C 0 km/h
353 18-05-2022 05:20:00 13 C 10.43 g/m*3 13 C 0 km/h
354 18-05-2022 05:25:00 12.9 C 10.37 g/m*3 12.9 C 0 km/h
355 18-05-2022 05:30:00 12.8 C 10.3 g/m*3 12.8 C 0 km/h
356 18-05-2022 05:35:00 12.8 C 10.3 g/m*3 12.8 C 0 km/h
357 18-05-2022 05:40:00 12.7 C 10.24 g/m*3 12.7 C 0 km/h
358 18-05-2022 05:45:00 12.7 C 10.24 g/m*3 12.7 C 0 km/h
359 18-05-2022 05:50:00 12.7 C 10.24 g/m*3 12.7 C 0 km/h
360 18-05-2022 05:55:00 12.6 C 10.18 g/m*3 12.6 C 0 km/h
361 18-05-2022 06:00:00 12.6 C 10.29 g/m*3 12.6 C 0 km/h
362 18-05-2022 06:05:00 12.6 C 10.29 g/m*3 12.6 C 0 km/h
363 18-05-2022 06:10:00 12.5 C 10.22 g/m*3 12.5 C 0 km/h
364 18-05-2022 06:15:00 12.5 C 10.22 g/m*3 12.5 C 0 km/h
365 18-05-2022 06:20:00 12.5 C 10.22 g/m*3 12.5 C 0 km/h
366 18-05-2022 06:25:00 12.5 C 10.22 g/m*3 12.5 C 0 km/h
367 18-05-2022 06:30:00 12.5 C 10.22 g/m*3 12.5 C 0 km/h
368 18-05-2022 06:35:00 12.5 C 10.22 g/m*3 12.5 C 0 km/h
369 18-05-2022 06:40:00 12.6 C 10.29 g/m*3 12.6 C 0 km/h
370 18-05-2022 06:45:00 12.6 C 10.4 g/m*3 12.6 C 0 km/h
371 18-05-2022 06:50:00 12.7 C 10.46 g/m*3 12.7 C 0 km/h
372 18-05-2022 06:55:00 12.8 C 10.53 g/m*3 12.8 C 0 km/h
373 18-05-2022 07:00:00 12.9 C 10.59 g/m*3 12.9 C 0 km/h
374 18-05-2022 07:05:00 13.1 C 10.73 g/m*3 13.1 C 0 km/h
375 18-05-2022 07:10:00 13.2 C 10.91 g/m*3 13.2 C 0 km/h
Sensor: Nr:Datum:Temp:Abs-Feuchte:Windchill:Wind:
Aussen-T/F 376 18-05-2022 07:15:00 13.3 C 10.98 g/m*3 13.3 C 0 km/h
377 18-05-2022 07:20:00 13.4 C 11.04 g/m*3 13.4 C 0 km/h
378 18-05-2022 07:25:00 13.6 C 11.18 g/m*3 13.6 C 0 km/h
379 18-05-2022 07:30:00 13.6 C 11.18 g/m*3 13.6 C 0 km/h
380 18-05-2022 07:35:00 13.7 C 11.25 g/m*3 13.7 C 0 km/h
381 18-05-2022 07:40:00 13.8 C 11.32 g/m*3 13.8 C 0 km/h
382 18-05-2022 07:45:00 13.9 C 11.39 g/m*3 13.9 C 1.6 km/h
383 18-05-2022 07:50:00 14 C 11.46 g/m*3 14 C 0 km/h
384 18-05-2022 07:55:00 14.1 C 11.53 g/m*3 14.1 C 0 km/h
385 18-05-2022 08:00:00 14.2 C 11.6 g/m*3 14.2 C 0 km/h
386 18-05-2022 08:05:00 14.3 C 11.67 g/m*3 14.3 C 0 km/h
387 18-05-2022 08:10:00 14.4 C 11.74 g/m*3 14.4 C 0 km/h
388 18-05-2022 08:15:00 14.5 C 11.82 g/m*3 14.5 C 0 km/h
389 18-05-2022 08:20:00 14.6 C 11.89 g/m*3 14.6 C 0 km/h
390 18-05-2022 08:25:00 14.7 C 11.96 g/m*3 14.7 C 0 km/h
391 18-05-2022 08:30:00 14.9 C 12.11 g/m*3 14.9 C 0 km/h
392 18-05-2022 08:35:00 15 C 12.18 g/m*3 15 C 0 km/h
393 18-05-2022 08:40:00 15.1 C 12.26 g/m*3 15.1 C 0 km/h
394 18-05-2022 08:45:00 15.2 C 12.33 g/m*3 15.2 C 0 km/h
395 18-05-2022 08:50:00 15.3 C 12.41 g/m*3 15.3 C 0 km/h
396 18-05-2022 08:55:00 15.4 C 12.48 g/m*3 15.4 C 0 km/h
397 18-05-2022 09:00:00 15.5 C 12.56 g/m*3 15.5 C 0 km/h
398 18-05-2022 09:05:00 15.6 C 12.63 g/m*3 15.6 C 0 km/h
399 18-05-2022 09:10:00 15.7 C 12.71 g/m*3 15.7 C 0 km/h
400 18-05-2022 09:15:00 15.9 C 12.87 g/m*3 15.9 C 0 km/h
Sensor: Nr:Datum:Temp:Abs-Feuchte:Windchill:Wind:
Aussen-T/F 401 18-05-2022 09:20:00 16.1 C 13.02 g/m*3 16.1 C 0 km/h
402 18-05-2022 09:25:00 16.3 C 13.18 g/m*3 16.3 C 0 km/h
403 18-05-2022 09:30:00 16.4 C 13.12 g/m*3 16.4 C 0 km/h
404 18-05-2022 09:35:00 16.6 C 13.28 g/m*3 16.6 C 0 km/h
405 18-05-2022 09:40:00 16.7 C 13.36 g/m*3 16.7 C 0 km/h
406 18-05-2022 09:45:00 16.9 C 13.52 g/m*3 16.9 C 0 km/h
407 18-05-2022 09:50:00 17.1 C 13.68 g/m*3 17.1 C 0 km/h
408 18-05-2022 09:55:00 17.2 C 13.62 g/m*3 17.2 C 0 km/h
409 18-05-2022 10:00:00 17.4 C 13.78 g/m*3 17.4 C 0 km/h
410 18-05-2022 10:05:00 17.7 C 14.03 g/m*3 17.7 C 0 km/h
411 18-05-2022 10:10:00 18 C 14.28 g/m*3 18 C 3.2 km/h
412 18-05-2022 10:15:00 18.3 C 14.23 g/m*3 18.3 C 3.2 km/h
413 18-05-2022 10:20:00 18.6 C 14.48 g/m*3 18.6 C 0 km/h
414 18-05-2022 10:25:00 18.8 C 14.49 g/m*3 18.8 C 1.6 km/h
415 18-05-2022 10:30:00 19.1 C 14.59 g/m*3 19.1 C 1.6 km/h
416 18-05-2022 10:35:00 19.4 C 14.85 g/m*3 19.4 C 1.6 km/h
417 18-05-2022 10:40:00 19.8 C 15.03 g/m*3 19.8 C 1.6 km/h
418 18-05-2022 10:45:00 20.1 C 15.12 g/m*3 20.1 C 0 km/h
419 18-05-2022 10:50:00 20.4 C 15.21 g/m*3 20.4 C 0 km/h
420 18-05-2022 10:55:00 20.8 C 14.49 g/m*3 20.8 C 1.6 km/h
421 18-05-2022 11:00:00 21.3 C 15.1 g/m*3 21.3 C 1.6 km/h
422 18-05-2022 11:05:00 21.8 C 14.39 g/m*3 21.8 C 0 km/h
423 18-05-2022 11:10:00 22.6 C 14.06 g/m*3 22.6 C 3.2 km/h
424 18-05-2022 11:15:00 23.3 C 14.43 g/m*3 23.3 C 4.8 km/h
425 18-05-2022 11:20:00 24.1 C 14.66 g/m*3 24.1 C 3.2 km/h
Sensor: Nr:Datum:Temp:Abs-Feuchte:Windchill:Wind:
Aussen-T/F 426 18-05-2022 11:25:00 24.5 C 13.88 g/m*3 24.5 C 1.6 km/h
427 18-05-2022 11:30:00 24.9 C 13.96 g/m*3 24.9 C 4.8 km/h
428 18-05-2022 11:35:00 25.4 C 14.13 g/m*3 25.4 C 4.8 km/h
429 18-05-2022 11:40:00 25.9 C 15.01 g/m*3 25.9 C 8.1 km/h
430 18-05-2022 11:45:00 26.2 C 13.79 g/m*3 26.2 C 8.1 km/h
431 18-05-2022 11:50:00 26.4 C 13.69 g/m*3 26.4 C 4.8 km/h
432 18-05-2022 11:55:00 26.7 C 13.67 g/m*3 26.7 C 3.2 km/h
433 18-05-2022 12:00:00 26.9 C 14.08 g/m*3 26.9 C 3.2 km/h
434 18-05-2022 12:05:00 27.1 C 13.72 g/m*3 27.1 C 3.2 km/h
435 18-05-2022 12:10:00 27.3 C 13.87 g/m*3 27.3 C 6.4 km/h
436 18-05-2022 12:15:00 27.4 C 13.42 g/m*3 27.4 C 6.4 km/h
437 18-05-2022 12:20:00 27.6 C 12.77 g/m*3 27.6 C 6.4 km/h
438 18-05-2022 12:25:00 27.8 C 12.64 g/m*3 27.8 C 3.2 km/h
439 18-05-2022 12:30:00 28 C 13.6 g/m*3 28 C 4.8 km/h
440 18-05-2022 12:35:00 28.1 C 12.58 g/m*3 28.1 C 3.2 km/h
441 18-05-2022 12:40:00 28.2 C 12.65 g/m*3 28.2 C 4.8 km/h
442 18-05-2022 12:45:00 28.3 C 13.55 g/m*3 28.3 C 8.1 km/h
443 18-05-2022 12:50:00 28.4 C 12.23 g/m*3 28.4 C 6.4 km/h
444 18-05-2022 12:55:00 28.6 C 12.37 g/m*3 28.6 C 11.3 km/h
445 18-05-2022 13:00:00 28.7 C 12.72 g/m*3 28.7 C 11.3 km/h
446 18-05-2022 13:05:00 28.7 C 12.43 g/m*3 28.7 C 9.7 km/h
447 18-05-2022 13:10:00 28.9 C 12 g/m*3 28.9 C 9.7 km/h
448 18-05-2022 13:15:00 29 C 11.78 g/m*3 29 C 9.7 km/h
449 18-05-2022 13:20:00 29 C 11.78 g/m*3 29 C 9.7 km/h
450 18-05-2022 13:25:00 29 C 11.78 g/m*3 29 C 17.7 km/h
Sensor: Nr:Datum:Temp:Abs-Feuchte:Windchill:Wind:
Aussen-T/F 451 18-05-2022 13:30:00 29.1 C 11.84 g/m*3 29.1 C 8.1 km/h
452 18-05-2022 13:35:00 29.2 C 11.91 g/m*3 29.2 C 6.4 km/h
453 18-05-2022 13:40:00 29.2 C 11.61 g/m*3 29.2 C 8.1 km/h
454 18-05-2022 13:45:00 29.1 C 11.84 g/m*3 29.1 C 16.1 km/h
455 18-05-2022 13:50:00 29.1 C 11.84 g/m*3 29.1 C 12.9 km/h
456 18-05-2022 13:55:00 29.1 C 11.26 g/m*3 29.1 C 9.7 km/h
457 18-05-2022 14:00:00 29.3 C 11.97 g/m*3 29.3 C 9.7 km/h
458 18-05-2022 14:05:00 29.4 C 11.45 g/m*3 29.4 C 9.7 km/h
459 18-05-2022 14:10:00 29.5 C 11.51 g/m*3 29.5 C 8.1 km/h
460 18-05-2022 14:15:00 29.6 C 12.76 g/m*3 29.6 C 12.9 km/h
461 18-05-2022 14:20:00 29.8 C 12 g/m*3 29.8 C 3.2 km/h
462 18-05-2022 14:25:00 29.9 C 12.37 g/m*3 29.9 C 4.8 km/h
463 18-05-2022 14:30:00 29.9 C 11.76 g/m*3 29.9 C 12.9 km/h
464 18-05-2022 14:35:00 29.8 C 11.7 g/m*3 29.8 C 14.5 km/h
465 18-05-2022 14:40:00 29.7 C 12.23 g/m*3 29.7 C 16.1 km/h
466 18-05-2022 14:45:00 29.8 C 12.3 g/m*3 29.8 C 6.4 km/h
467 18-05-2022 14:50:00 29.9 C 12.37 g/m*3 29.9 C 8.1 km/h
468 18-05-2022 14:55:00 30.1 C 11.28 g/m*3 30.1 C 12.9 km/h
469 18-05-2022 15:00:00 29.9 C 11.46 g/m*3 29.9 C 11.3 km/h
470 18-05-2022 15:05:00 29.8 C 11.4 g/m*3 29.8 C 12.9 km/h
471 18-05-2022 15:10:00 30 C 11.83 g/m*3 30 C 6.4 km/h
472 18-05-2022 15:15:00 30.3 C 11.71 g/m*3 30.3 C 8.1 km/h
473 18-05-2022 15:20:00 30.5 C 10.9 g/m*3 30.5 C 16.1 km/h
474 18-05-2022 15:25:00 30.4 C 10.85 g/m*3 30.4 C 17.7 km/h
475 18-05-2022 15:30:00 30.4 C 11.77 g/m*3 30.4 C 8.1 km/h
Sensor: Nr:Datum:Temp:Abs-Feuchte:Windchill:Wind:
Aussen-T/F 476 18-05-2022 15:35:00 30.6 C 11.9 g/m*3 30.6 C 3.2 km/h
477 18-05-2022 15:40:00 30.9 C 12.1 g/m*3 30.9 C 6.4 km/h
478 18-05-2022 15:45:00 31.1 C 11.9 g/m*3 31.1 C 8.1 km/h
479 18-05-2022 15:50:00 31.2 C 11.65 g/m*3 31.2 C 12.9 km/h
480 18-05-2022 15:55:00 31.3 C 11.71 g/m*3 31.3 C 8.1 km/h
481 18-05-2022 16:00:00 30.9 C 10.82 g/m*3 30.9 C 11.3 km/h
482 18-05-2022 16:05:00 30.7 C 11.02 g/m*3 30.7 C 9.7 km/h
483 18-05-2022 16:10:00 30.8 C 11.4 g/m*3 30.8 C 9.7 km/h
484 18-05-2022 16:15:00 30.9 C 11.14 g/m*3 30.9 C 6.4 km/h
485 18-05-2022 16:20:00 30.9 C 11.78 g/m*3 30.9 C 8.1 km/h
486 18-05-2022 16:25:00 31.1 C 11.58 g/m*3 31.1 C 9.7 km/h
487 18-05-2022 16:30:00 31.3 C 11.71 g/m*3 31.3 C 12.9 km/h
488 18-05-2022 16:35:00 31.1 C 11.9 g/m*3 31.1 C 12.9 km/h
489 18-05-2022 16:40:00 31.2 C 10.67 g/m*3 31.2 C 8.1 km/h
490 18-05-2022 16:45:00 31.3 C 11.06 g/m*3 31.3 C 6.4 km/h
491 18-05-2022 16:50:00 31.5 C 11.18 g/m*3 31.5 C 4.8 km/h
492 18-05-2022 16:55:00 31.7 C 11.63 g/m*3 31.7 C 6.4 km/h
493 18-05-2022 17:00:00 31.9 C 11.75 g/m*3 31.9 C 4.8 km/h
494 18-05-2022 17:05:00 32 C 10.8 g/m*3 32 C 4.8 km/h
495 18-05-2022 17:10:00 31.8 C 11.02 g/m*3 31.8 C 4.8 km/h
496 18-05-2022 17:15:00 31.8 C 11.36 g/m*3 31.8 C 4.8 km/h
497 18-05-2022 17:20:00 31.8 C 11.69 g/m*3 31.8 C 9.7 km/h
498 18-05-2022 17:25:00 31.9 C 11.42 g/m*3 31.9 C 8.1 km/h
499 18-05-2022 17:30:00 31.9 C 11.08 g/m*3 31.9 C 14.5 km/h
500 18-05-2022 17:35:00 31.6 C 11.24 g/m*3 31.6 C 12.9 km/h
Sensor: Nr:Datum:Temp:Abs-Feuchte:Windchill:Wind:
Aussen-T/F 501 18-05-2022 17:40:00 31.6 C 11.24 g/m*3 31.6 C 9.7 km/h
502 18-05-2022 17:45:00 31.6 C 11.24 g/m*3 31.6 C 9.7 km/h
503 18-05-2022 17:50:00 31.4 C 10.79 g/m*3 31.4 C 8.1 km/h
504 18-05-2022 17:55:00 31.2 C 11.32 g/m*3 31.2 C 11.3 km/h
505 18-05-2022 18:00:00 31.1 C 10.62 g/m*3 31.1 C 9.7 km/h
506 18-05-2022 18:05:00 30.8 C 11.08 g/m*3 30.8 C 11.3 km/h
507 18-05-2022 18:10:00 30.6 C 10.96 g/m*3 30.6 C 11.3 km/h
508 18-05-2022 18:15:00 30.7 C 10.71 g/m*3 30.7 C 8.1 km/h
509 18-05-2022 18:20:00 30.6 C 11.28 g/m*3 30.6 C 8.1 km/h
510 18-05-2022 18:25:00 30.5 C 11.22 g/m*3 30.5 C 4.8 km/h
511 18-05-2022 18:30:00 30.4 C 11.47 g/m*3 30.4 C 1.6 km/h
512 18-05-2022 18:35:00 30.3 C 13.25 g/m*3 30.3 C 1.6 km/h
513 18-05-2022 18:40:00 30.1 C 12.81 g/m*3 30.1 C 3.2 km/h
514 18-05-2022 18:45:00 29.9 C 13.27 g/m*3 29.9 C 1.6 km/h
515 18-05-2022 18:50:00 29.7 C 12.23 g/m*3 29.7 C 3.2 km/h
516 18-05-2022 18:55:00 29.7 C 11.34 g/m*3 29.7 C 8.1 km/h
517 18-05-2022 19:00:00 29.4 C 11.45 g/m*3 29.4 C 3.2 km/h
518 18-05-2022 19:05:00 29.3 C 13.43 g/m*3 29.3 C 1.6 km/h
519 18-05-2022 19:10:00 29.1 C 13 g/m*3 29.1 C 4.8 km/h
520 18-05-2022 19:15:00 28.9 C 14.28 g/m*3 28.9 C 0 km/h
521 18-05-2022 19:20:00 28.6 C 14.05 g/m*3 28.6 C 3.2 km/h
522 18-05-2022 19:25:00 28.2 C 13.75 g/m*3 28.2 C 1.6 km/h
523 18-05-2022 19:30:00 28 C 13.6 g/m*3 28 C 0 km/h
524 18-05-2022 19:35:00 27.8 C 13.99 g/m*3 27.8 C 1.6 km/h
525 18-05-2022 19:40:00 27.6 C 13.57 g/m*3 27.6 C 3.2 km/h
Sensor: Nr:Datum:Temp:Abs-Feuchte:Windchill:Wind:
Aussen-T/F 526 18-05-2022 19:45:00 27.6 C 14.1 g/m*3 27.6 C 1.6 km/h
527 18-05-2022 19:50:00 27.4 C 13.68 g/m*3 27.4 C 1.6 km/h
528 18-05-2022 19:55:00 27.3 C 13.61 g/m*3 27.3 C 0 km/h
529 18-05-2022 20:00:00 27 C 13.13 g/m*3 27 C 1.6 km/h
530 18-05-2022 20:05:00 26.8 C 13.49 g/m*3 26.8 C 0 km/h
531 18-05-2022 20:10:00 26.6 C 13.34 g/m*3 26.6 C 0 km/h
532 18-05-2022 20:15:00 26.2 C 13.29 g/m*3 26.2 C 3.2 km/h
533 18-05-2022 20:20:00 25.9 C 13.32 g/m*3 25.9 C 3.2 km/h
534 18-05-2022 20:25:00 25.5 C 13.02 g/m*3 25.5 C 1.6 km/h
535 18-05-2022 20:30:00 25.1 C 12.96 g/m*3 25.1 C 0 km/h
536 18-05-2022 20:35:00 24.7 C 12.68 g/m*3 24.7 C 1.6 km/h
537 18-05-2022 20:40:00 24.3 C 12.61 g/m*3 24.3 C 3.2 km/h
538 18-05-2022 20:45:00 23.9 C 12.55 g/m*3 23.9 C 1.6 km/h
539 18-05-2022 20:50:00 23.5 C 12.27 g/m*3 23.5 C 3.2 km/h
540 18-05-2022 20:55:00 23.2 C 12.47 g/m*3 23.2 C 1.6 km/h
541 18-05-2022 21:00:00 22.8 C 12.19 g/m*3 22.8 C 3.2 km/h
542 18-05-2022 21:05:00 22.4 C 12.11 g/m*3 22.4 C 1.6 km/h
543 18-05-2022 21:10:00 22.1 C 12.1 g/m*3 22.1 C 0 km/h
544 18-05-2022 21:15:00 21.8 C 12.09 g/m*3 21.8 C 1.6 km/h
545 18-05-2022 21:20:00 21.5 C 12.07 g/m*3 21.5 C 3.2 km/h
546 18-05-2022 21:25:00 21.2 C 11.86 g/m*3 21.2 C 4.8 km/h
547 18-05-2022 21:30:00 20.9 C 11.66 g/m*3 20.9 C 4.8 km/h
548 18-05-2022 21:35:00 20.7 C 11.7 g/m*3 20.7 C 3.2 km/h
549 18-05-2022 21:40:00 20.6 C 11.63 g/m*3 20.6 C 3.2 km/h
550 18-05-2022 21:45:00 20.3 C 11.61 g/m*3 20.3 C 4.8 km/h
Sensor: Nr:Datum:Temp:Abs-Feuchte:Windchill:Wind:
Aussen-T/F 551 18-05-2022 21:50:00 20.2 C 11.54 g/m*3 20.2 C 4.8 km/h
552 18-05-2022 21:55:00 20.1 C 11.47 g/m*3 20.1 C 3.2 km/h
553 18-05-2022 22:00:00 19.9 C 11.51 g/m*3 19.9 C 1.6 km/h
554 18-05-2022 22:05:00 19.9 C 11.51 g/m*3 19.9 C 1.6 km/h
555 18-05-2022 22:10:00 19.8 C 11.44 g/m*3 19.8 C 0 km/h
556 18-05-2022 22:15:00 19.7 C 11.38 g/m*3 19.7 C 3.2 km/h
557 18-05-2022 22:20:00 19.7 C 11.55 g/m*3 19.7 C 1.6 km/h
558 18-05-2022 22:25:00 19.6 C 11.48 g/m*3 19.6 C 3.2 km/h
559 18-05-2022 22:30:00 19.5 C 11.58 g/m*3 19.5 C 0 km/h
560 18-05-2022 22:35:00 19.4 C 11.51 g/m*3 19.4 C 0 km/h
561 18-05-2022 22:40:00 19.3 C 11.44 g/m*3 19.3 C 0 km/h
562 18-05-2022 22:45:00 19.2 C 11.54 g/m*3 19.2 C 0 km/h
563 18-05-2022 22:50:00 19.1 C 11.64 g/m*3 19.1 C 1.6 km/h
564 18-05-2022 22:55:00 18.9 C 11.5 g/m*3 18.9 C 0 km/h
565 18-05-2022 23:00:00 18.8 C 11.6 g/m*3 18.8 C 0 km/h
566 18-05-2022 23:05:00 18.7 C 11.53 g/m*3 18.7 C 0 km/h
567 18-05-2022 23:10:00 18.6 C 11.62 g/m*3 18.6 C 0 km/h
568 18-05-2022 23:15:00 18.5 C 11.71 g/m*3 18.5 C 0 km/h
569 18-05-2022 23:20:00 18.4 C 11.64 g/m*3 18.4 C 0 km/h
570 18-05-2022 23:25:00 18.3 C 11.57 g/m*3 18.3 C 0 km/h
571 18-05-2022 23:30:00 18.3 C 11.73 g/m*3 18.3 C 0 km/h
572 18-05-2022 23:35:00 18.2 C 11.66 g/m*3 18.2 C 0 km/h
573 18-05-2022 23:40:00 18.1 C 11.74 g/m*3 18.1 C 0 km/h
574 18-05-2022 23:45:00 18.1 C 11.74 g/m*3 18.1 C 0 km/h
575 18-05-2022 23:50:00 18.1 C 11.74 g/m*3 18.1 C 0 km/h
Sensor: Nr:Datum:Temp:Abs-Feuchte:Windchill:Wind:
Aussen-T/F 576 18-05-2022 23:55:00 18 C 11.67 g/m*3 18 C 0 km/h

Legende:
   Min
   Max


Maximal/Minimal-Werte vom 17.05.2022 - 18.05.2022

Sensor Min Max Avg
Temp
(Aussen-T/F)
12.5 °C
18-05-2022  06:10:00
32 °C
18-05-2022  17:05:00
20.14 °C
Abs-Feuchte
(Aussen-T/F)
10.18 g/m*3
18-05-2022  05:55:00
15.21 g/m*3
18-05-2022  10:50:00
11.92 g/m*3
Windchill
(Aussen-T/F)
12.5 C
18-05-2022  06:10:00
32 C
18-05-2022  17:05:00
20.1 C

Die Daten stammen von einer Davis Vantage Pro 2 Wetter-Station und werden unter Linux mit der Software wview2wettercgi und aufbereitet. Alle Angaben erfolgen ohne Gewähr für ihre Vollständigkeit oder Richtigkeit.
Kontakt: Rainer Krienke krienke@uni-koblenz.de . Meine Webseiten an der Uni Koblenz oder privat.
Version: $Revision: 0.78 $